EW8281 Weather Reports


time (UTC)temp
F
wind
direction
speed
knots
gust
knots
rain 1hr
in
rain 24hr
in
rain mn
in
humidity
%
barometer
mb
20260508070014 46 331 0.0 0.0 0.00 0.25 0.00 96 1013.3
20260508064515 45 331 0.0 0.0 0.00 0.26 0.00 96 1013.2
20260508063014 45 331 0.0 0.0 0.00 0.26 0.00 96 1013.3
20260508061513 46 331 0.0 0.0 0.00 0.26 0.00 96 1013.4
20260508060010 46 331 0.0 0.0 0.00 0.26 0.00 96 1013.2
20260508054508 47 331 0.0 0.0 0.00 0.26 0.00 96 1013.2
20260508053010 46 331 0.0 0.0 0.00 0.26 0.00 95 1013.0
20260508051504 47 331 0.0 0.0 0.00 0.26 0.00 95 1013.0
20260508050004 47 331 0.0 0.0 0.00 0.26 0.00 95 1012.9
20260508044502 47 331 0.0 0.0 0.00 0.27 0.00 95 1012.9
20260508043105 48 331 0.0 0.0 0.00 0.27 0.00 95 1012.6
20260508041617 48 331 0.0 0.0 0.00 0.27 0.00 95 1012.4
20260508040109 48 331 0.0 0.0 0.00 0.27 0.00 95 1012.5
20260508034553 49 331 0.0 0.0 0.00 0.30 0.27 95 1012.2
20260508033050 49 331 0.0 0.0 0.00 0.30 0.27 95 1012.2
20260508031547 50 331 0.0 0.0 0.00 0.30 0.27 95 1012.0
20260508030046 50 331 0.0 0.0 0.00 0.30 0.27 95 1012.0
20260508024550 51 331 0.0 0.0 0.00 0.31 0.27 95 1011.9
20260508023041 51 331 0.0 1.7 0.00 0.31 0.27 95 1011.6
20260508021541 51 331 0.0 0.0 0.00 0.31 0.27 95 1011.3
20260508020042 52 331 0.0 0.0 0.00 0.31 0.27 95 1011.1
20260508014534 52 331 0.0 3.5 0.00 0.32 0.27 95 1010.8
20260508013031 53 199 0.0 3.5 0.00 0.32 0.27 95 1010.5
20260508011529 53 25 0.0 0.9 0.00 0.32 0.27 94 1010.4
20260508010028 54 22 0.0 0.0 0.00 0.32 0.27 94 1010.2
20260508004526 54 22 0.0 0.0 0.00 0.33 0.27 94 1010.1
20260508003023 55 22 0.0 0.0 0.00 0.33 0.27 93 1010.0
20260508001522 56 22 0.0 0.9 0.00 0.33 0.27 93 1010.1
20260508000020 56 323 0.0 0.0 0.00 0.33 0.27 92 1009.9
20260507234520 57 323 0.0 3.5 0.00 0.33 0.27 92 1009.8
20260507233031 57 345 0.0 3.5 0.00 0.33 0.27 91 1009.6
20260507231517 57 75 0.9 4.3 0.00 0.33 0.27 92 1009.2
20260507230017 57 47 0.9 4.3 0.00 0.33 0.27 93 1008.9
20260507224517 57 25 0.0 3.5 0.00 0.33 0.27 93 1008.8
20260507223017 57 351 0.0 5.2 0.00 0.33 0.27 92 1008.9
20260507221520 57 94 0.0 3.5 0.00 0.33 0.27 92 1008.5
20260507220015 57 67 1.7 7.8 0.00 0.33 0.27 92 1008.5
20260507214516 56 57 0.9 7.0 0.00 0.33 0.27 92 1008.4
20260507213020 56 5 0.9 7.0 0.00 0.33 0.27 92 1008.2
20260507211513 56 355 0.9 7.8 0.00 0.33 0.27 93 1008.2
20260507210012 57 26 1.7 7.0 0.00 0.33 0.27 94 1008.2
20260507204517 56 71 1.7 7.8 0.01 0.33 0.27 95 1008.4
20260507203011 56 83 1.7 9.6 0.01 0.33 0.27 94 1008.1
20260507201514 56 28 3.5 9.6 0.01 0.33 0.27 94 1008.3
20260507200010 56 50 0.9 6.1 0.01 0.33 0.27 94 1008.4
20260507194508 56 34 1.7 7.0 0.00 0.32 0.26 93 1008.4
20260507193003 57 83 1.7 7.0 0.00 0.32 0.26 92 1008.4
20260507191600 57 60 0.9 10.4 0.00 0.32 0.26 92 1007.7
20260507190058 58 14 0.9 7.0 0.00 0.32 0.26 92 1008.3
20260507184555 58 55 4.3 10.4 0.00 0.32 0.26 92 1008.1
20260507183054 60 71 2.6 8.7 0.00 0.32 0.26 92 1008.1
20260507181556 61 347 1.7 9.6 0.00 0.32 0.26 92 1007.9
20260507180050 61 44 0.9 5.2 0.00 0.32 0.26 92 1007.9
20260507174557 61 73 1.7 7.8 0.00 0.32 0.26 92 1007.9
20260507173119 60 34 0.9 7.8 0.00 0.32 0.26 93 1008.1
20260507171554 61 35 3.5 9.6 0.00 0.32 0.26 92 1008.5
20260507170055 61 19 2.6 10.4 0.00 0.32 0.26 92 1008.4
20260507164552 61 47 1.7 7.8 0.02 0.32 0.26 94 1007.9
20260507163042 61 360 0.9 8.7 0.02 0.32 0.26 94 1007.8
20260507161556 61 59 1.7 8.7 0.02 0.32 0.26 95 1007.9
20260507160041 61 31 0.9 5.2 0.02 0.32 0.26 95 1008.0
20260507154541 61 57 0.9 8.7 0.00 0.30 0.24 94 1008.1
20260507153033 62 57 0.9 6.1 0.00 0.30 0.24 95 1008.3
20260507151531 63 314 0.0 3.5 0.00 0.30 0.24 96 1008.3
20260507150031 64 32 1.7 2.6 0.00 0.30 0.24 96 1008.3
20260507144533 64 39 0.0 3.5 0.00 0.30 0.24 96 1008.1
20260507143029 64 47 0.0 0.0 0.01 0.30 0.24 96 1007.8
20260507141528 64 164 0.0 0.0 0.01 0.30 0.24 97 1008.0
20260507140028 63 164 0.0 0.0 0.02 0.30 0.24 97 1007.8
20260507134529 63 164 0.0 0.0 0.04 0.30 0.24 97 1007.8
20260507133029 63 164 0.0 0.0 0.06 0.28 0.23 96 1007.5
20260507131531 63 159 0.0 1.7 0.08 0.28 0.23 96 1007.5
20260507130027 63 161 0.0 0.9 0.08 0.28 0.22 96 1008.3
20260507124525 63 161 0.0 0.9 0.08 0.26 0.20 96 1008.9
20260507123028 63 161 0.0 0.0 0.04 0.22 0.16 96 1008.9
20260507121523 63 160 0.0 0.9 0.03 0.21 0.15 96 1008.9
20260507120038 63 230 0.0 0.0 0.02 0.20 0.14 96 1008.4
20260507114522 63 230 0.0 0.9 0.00 0.18 0.12 96 1008.7
20260507113037 63 136 0.0 0.0 0.00 0.18 0.12 96 1008.5
20260507111522 63 136 0.0 3.5 0.00 0.18 0.12 96 1008.2
20260507110025 63 146 0.0 1.7 0.00 0.18 0.12 96 1008.1
20260507104521 63 269 0.0 0.0 0.00 0.18 0.12 96 1008.2
20260507103021 62 269 0.0 0.9 0.00 0.18 0.12 96 1008.2
20260507101521 62 9 0.0 0.9 0.00 0.18 0.12 96 1007.8
20260507100026 63 9 0.0 0.9 0.00 0.18 0.12 96 1008.2
20260507094519 63 355 0.0 0.9 0.00 0.18 0.12 96 1008.1
20260507093018 63 355 0.0 0.0 0.00 0.18 0.12 96 1008.2
20260507091521 63 355 0.0 0.0 0.00 0.18 0.12 96 1008.0
20260507090016 63 355 0.0 0.9 0.00 0.18 0.12 96 1008.6
20260507084516 62 360 0.0 1.7 0.00 0.18 0.12 96 1008.4
20260507083015 63 189 0.0 1.7 0.01 0.18 0.12 96 1007.8
20260507081514 63 283 0.0 0.9 0.01 0.18 0.12 96 1008.0
20260507080013 63 289 0.0 1.7 0.08 0.18 0.12 96 1008.1
20260507074522 63 169 0.9 6.1 0.11 0.18 0.12 95 1007.8
20260507073012 63 235 1.7 6.1 0.10 0.17 0.11 95 1008.0
20260507071511 63 156 1.7 5.2 0.10 0.17 0.11 95 1008.4